Погода в Кабоже

Россия / Новгородская область     58°34′38″N   34°58′13″E
темп.,
°C
ветер,
м/с
пор.,
м/с
влажн.,
%
обл.,
%
осадки,
мм/ч
давл.,
гПа
погр.,
м
24 мая, вт
вт2400:00+4сз3965100 0.0 1007297
03:00+4ссз41057100 0.0 1008655
06:00+3ссз41166100 0.0 1008743
09:00+3ссз5979100 0.2 1009980
12:00+5с5964100 0.1 10101374
15:00+7с5857100 0.1 10111511
18:00+7с3662100 0.0 10121209
21:00+5с2569100 0.0 1014292
25 мая, ср
ср2500:00+4с2476100 0.0 1015126
03:00+3ссв128293 0.0 101666
06:00+4ссв127874 0.0 1016205
09:00+7сз126391 0.0 1016925
12:00+8сз2362100 0.0 10151244
15:00+7сз1277100 0.1 1015868
18:00+9ссв126691 0.0 1014766
21:00+6ююв2184100 0.0 101314
26 мая, чт
чт2600:00+5ююз1191100 0.0 101223
03:00+4ююз1196100 0.0 101110
06:00+6св1288100 0.0 1009109
09:00+9всв2264100 0.0 1007503
12:00+14в2144100 0.0 1005949
15:00+16в2239100 0.0 10031430
18:00+14юв2558100 0.0 1000642
21:00+9юв1398100 1.2 99989
27 мая, пт
пт2700:00+9юв2599100 4.3 996366
03:00+9сз1299100 8.0 994179
06:00+8ссз2599100 2.3 994373
09:00+8зсз4998100 5.3 995510
12:00+9з3895100 1.6 996679
15:00+10зюз5991100 3.8 997736
18:00+10зюз499299 1.7 997781
21:00+8юз399548 2.1 997379
28 мая, сб
сб2800:00+6ююз26977 0.0 997132
03:00+4ююз239770 0.0 99660
06:00+6ю2494100 0.0 995130
09:00+8юз348999 0.1 994620
12:00+6зюз3895100 4.4 996781
15:00+9зюз4787100 5.6 9961157
18:00+9зюз3789100 1.3 996781
21:00+7ююз2696100 1.7 997181